Tracking 19562 objects as of 24-Mar-2019
HD Live streaming from Space Station
objects crossing your sky now

FLOCK 1C 10

Track FLOCK 1C 10 now!
10-day predictions
FLOCK 1C 10 is classified as:


NORAD ID: 40023
Int'l Code: 2014-033P
Perigee: 597.4 km
Apogee: 615.1 km
Inclination: 97.9 °
Period: 96.7 minutes
Semi major axis: 6977 km
RCS: Unknown
Launch date: June 19, 2014
Source: United States (US)
Launch site: Orenburg, Russia (OREN)
aabbcc
Your satellite tracking list
Your tracking list is empty




NASA's NSSDC Master Catalog

Two Line Element Set (TLE):
1 40023U 14033P   19082.75980599  .00000445  00000-0  52467-4 0  9993
2 40023  97.9225   5.3003 0012661 353.5712   6.5340 14.89623204258437
Source of the keplerian elements: Caltech